Location: G�ndlingen
(48.0142°N, 7.6396°E)
Time: 18:20:47
(UTC+00:00)

PSLV R/B - Pass Details

Date: 05 July 2020
Orbit: 598 x 701 km, 97.9° (Epoch: 12 August)

Event Time Altitude Azimuth Distance (km) Brightness Sun altitude
Rises 23:29:17 0° 19° (NNE) 2,857 8.3 -19.3°
Reaches altitude 10° 23:31:33 10° 27° (NNE) 1,952 7.0 -19.3°
Maximum altitude 23:35:34 42° 98° (E) 876 4.2 -19.3°
Enters shadow 23:36:35 35° 134° (SE) 984 4.2 -19.3°
